Home   Weather   Cleveland   Past weeks
Flag for USA

Past Weather in Cleveland, Ohio, USA — Yesterday and Last 2 Weeks

Now
61 °F

Light rain. Fog.


Feels Like: 61 °F
Forecast: 60 / 48 °F
Wind: 7 mph from South

Location: Cleveland-Hopkins International Airport

Current Time: Apr 25, 2019 at 8:29:04 pm

Latest Report: Apr 25, 2019 at 7:51 pm


Visibility: 5 mi

Pressure: 29.75 "Hg

Humidity: 90%

Dew Point: 58 °F

Location of ClevelandLocation

Past Weather in Cleveland — Graph

°F

Cleveland Temperature Yesterday

Maximum temperature yesterday: 54 °F (at 4:51 pm)
Minimum temperature yesterday: 40 °F (at 6:51 am)
Average temperature yesterday: 49 °F

High & Low Weather Summary for the Past Weeks

 TemperatureHumidityPressure
High78 °F (Apr 18, 4:51 pm)97% (Apr 14, 7:51 pm)30.28 "Hg (Apr 14, 7:51 pm)
Low35 °F (Apr 15, 5:51 am)31% (Apr 13, 2:51 pm)29.28 "Hg (Apr 14, 6:04 pm)
Average53 °F69%29.88 "Hg
* Reported Apr 10 6:51 pm — Apr 25 6:51 pm, Cleveland. Weather by CustomWeather, © 2019

Note: Actual official high and low records may vary slightly from our data, if they occured in-between our weather recording intervals... More about our weather records

Advertising

Cleveland Weather History for the Previous 24 Hours

Scroll right to see more
 ConditionsComfort  
Time TempWeatherWind HumidityBarometerVisibility
6:51 pm
Thu, Apr 25
61 °FLight rain. Mostly cloudy.8 mph90%29.75 "Hg7 mi
5:51 pm63 °FLight rain. More clouds than sun.No wind58%29.77 "Hg9 mi
4:51 pm62 °FMostly cloudy.7 mph58%29.78 "Hg10 mi
3:51 pm67 °FOvercast.5 mph61%29.79 "Hg10 mi
2:51 pm66 °FOvercast.5 mph63%29.80 "Hg10 mi
1:51 pm66 °FOvercast.6 mph63%29.81 "Hg10 mi
12:51 pm64 °FOvercast.6 mph61%29.83 "Hg10 mi
11:51 am62 °FOvercast.7 mph60%29.85 "Hg10 mi
11:36 am62 °FMostly cloudy.8 mph60%29.86 "Hg10 mi
10:51 am59 °FOvercast.6 mph62%29.88 "Hg10 mi
9:51 am56 °FOvercast.7 mph65%29.90 "Hg10 mi
8:51 am54 °FOvercast.7 mph67%29.91 "Hg10 mi
7:51 am52 °FMostly cloudy.3 mph75%29.91 "Hg10 mi
6:51 am51 °FPartly sunny.7 mph69%29.89 "Hg10 mi
5:51 am51 °FMostly cloudy.3 mph66%29.90 "Hg10 mi
4:51 am49 °FLight rain. Overcast.5 mph69%29.91 "Hg10 mi
3:51 am50 °FMostly cloudy.3 mph63%29.91 "Hg10 mi
2:51 am48 °FPartly cloudy.3 mph66%29.91 "Hg10 mi
1:51 am49 °FOvercast.5 mph61%29.92 "Hg10 mi
12:51 am51 °FOvercast.7 mph52%29.92 "Hg10 mi
11:51 pm
Wed, Apr 24
51 °FPartly cloudy.5 mph50%29.94 "Hg10 mi
10:51 pm52 °FOvercast.5 mph50%29.96 "Hg10 mi
9:51 pm52 °FOvercast.6 mph49%29.96 "Hg10 mi
8:51 pm51 °FMostly cloudy.No wind52%29.98 "Hg10 mi
Weather by CustomWeather, © 2019

See weather overview